Weather History for Pardubice, Czech Republic

Change the Weather History Date:

Friday, November 9, 2012

  Actual Average Record
Temperature  
Mean Temperature 42 °F -  
Max Temperature 48 °F - - ()
Min Temperature 35 °F - - ()
Degree Days  
Heating Degree Days 24    
Moisture  
Dew Point 39 °F    
Average Humidity 85    
Maximum Humidity 100    
Minimum Humidity 71    
Precipitation  
Precipitation 0.00 in - - ()
Sea Level Pressure  
Sea Level Pressure 30.07 in    
Wind  
Wind Speed 5 mph ()    
Max Wind Speed 8 mph    
Max Gust Speed -    
Visibility 6.2 miles    
Events      
T = Trace of Precipitation, MM = Missing Value Source: Averaged Metar Reports

Daily Weather History Graph

Daily Weather History Graph

Search for Another Location

Airport:

Trip Planner

Search our weather history database for the weather conditions in past years. The results will help you decide how hot, cold, wet, or windy it might be!

Date:

Astronomy

Nov. 09, 2012 Rise Set
Actual Time 7:00 AM CET 4:20 PM CET
Civil Twilight 6:25 AM CET 4:55 PM CET
Nautical Twilight 5:46 AM CET 5:34 PM CET
Astronomical Twilight 5:08 AM CET 6:12 PM CET
Moon 1:11 AM CET (11/9) 1:49 PM CET (11/9)
Length of Visible Light 10h 29m
Length of Day
9h 20m
Waning Crescent, 25% of the Moon is Illuminated
Nov 9
Waning Crescent
Nov 13
New
Nov 20
First Quarter
Nov 28
Full
Dec 6
Last Quarter

Hourly Weather History & Observations

Time (CET) Temp. Windchill Dew Point Humidity Pressure Visibility Wind Dir Wind Speed Gust Speed Precip Events Conditions
12:00 AM 44.6 °F 41.4 °F 41.0 °F 87% 30.04 in 6.2 mi West 5.8 mph - N/A   Overcast
1:00 AM 44.6 °F 42.2 °F 41.0 °F 87% 30.04 in 6.2 mi West 4.6 mph - N/A   Overcast
2:00 AM 44.6 °F 41.4 °F 41.0 °F 87% 30.04 in 6.2 mi WSW 5.8 mph - N/A   Overcast
3:00 AM 44.6 °F 41.4 °F 39.2 °F 81% 30.04 in 6.2 mi WSW 5.8 mph - N/A   Mostly Cloudy
4:00 AM 44.6 °F 42.2 °F 39.2 °F 81% 30.04 in - West 4.6 mph - N/A   Clear
5:00 AM 42.8 °F 40.1 °F 39.2 °F 87% 30.04 in - West 4.6 mph - N/A   Clear
6:00 AM 42.8 °F 38.6 °F 39.2 °F 87% 30.04 in 6.2 mi West 6.9 mph - N/A   Mostly Cloudy
7:00 AM 42.8 °F 38.6 °F 39.2 °F 87% 30.06 in 6.2 mi West 6.9 mph - N/A   Overcast
8:00 AM 44.6 °F 41.4 °F 41.0 °F 87% 30.06 in 6.2 mi West 5.8 mph - N/A   Overcast
9:00 AM 44.6 °F 41.4 °F 41.0 °F 87% 30.09 in 6.2 mi West 5.8 mph - N/A   Overcast
10:00 AM 46.4 °F 42.4 °F 39.2 °F 76% 30.09 in 6.2 mi West 8.1 mph - N/A   Overcast
11:00 AM 46.4 °F 43.5 °F 41.0 °F 81% 30.12 in 6.2 mi West 5.8 mph - N/A   Overcast
12:00 PM 48.2 °F - 39.2 °F 71% 30.12 in 6.2 mi West 8.1 mph - N/A   Overcast
1:00 PM 48.2 °F - 41.0 °F 76% 30.12 in 6.2 mi West 4.6 mph - N/A   Mostly Cloudy
2:00 PM 48.2 °F - 39.2 °F 71% 30.09 in 6.2 mi WNW 3.5 mph - N/A   Mostly Cloudy
3:00 PM 48.2 °F - 41.0 °F 76% 30.09 in 6.2 mi South 1.2 mph - N/A   Mostly Cloudy
4:00 PM 46.4 °F - 39.2 °F 76% 30.09 in 6.2 mi ESE 2.3 mph - N/A   Scattered Clouds
5:00 PM 42.8 °F 40.1 °F 39.2 °F 87% 30.09 in - ESE 4.6 mph - N/A   Clear
6:00 PM 41.0 °F 37.1 °F 39.2 °F 93% 30.09 in - East 5.8 mph - N/A   Clear
7:00 PM 37.4 °F 32.8 °F 35.6 °F 93% 30.09 in - ESE 5.8 mph - N/A   Clear
8:00 PM 39.2 °F - 37.4 °F 93% 30.09 in - East 2.3 mph - N/A   Clear
9:00 PM 39.2 °F 35.9 °F 35.6 °F 87% 30.06 in - East 4.6 mph - N/A   Clear
10:00 PM 35.6 °F 30.7 °F 35.6 °F 100% 30.06 in - ESE 5.8 mph - N/A   Clear
11:00 PM 37.4 °F 32.8 °F 35.6 °F 93% 30.04 in - East 5.8 mph - N/A   Clear